Location: Burbank
(38.7788°N, 114.0429°W)
Time: 02:06:35
(UTC+00:00)

Tiros 1 despin weight - Pass Details

Date: 15 May 2026
Orbit: 554 x 591 km, 48.2° (Epoch: 6 June)

Event Time Altitude Azimuth Distance (km) Brightness Sun altitude
Rises 18:41:46 0° 299° (WNW) 2,730 ? 67.4°
Reaches altitude 10° 18:44:02 10° 296° (WNW) 1,832 ? 67.6°
Maximum altitude 18:48:08 57° 218° (SW) 654 ? 68.0°
Drops below altitude 10° 18:52:14 10° 139° (SE) 1,829 ? 68.4°
Sets 18:54:30 0° 135° (SE) 2,724 ? 68.6°
